Location: Nairn
(57.5833°N, 3.8667°W)
Time: 02:22:40
(UTC+00:00)

Vanguard 1 Rocket - Pass Details

Date: 28 November 2020
Orbit: 655 x 4221 km, 34.3° (Epoch: 20 January)

Event Time Altitude Azimuth Distance (km) Brightness Sun altitude
Exits shadow 06:39:09 - 260° (W) 7,098 11.4 -13.3°
Reaches altitude 10° 06:42:57 10° 254° (WSW) 6,327 11.2 -12.9°
Maximum altitude 06:54:21 20° 216° (SW) 4,381 10.7 -11.4°
Drops below altitude 10° 07:02:18 10° 174° (S) 4,226 11.2 -10.5°
Sets 07:06:07 0° 158° (SSE) 4,716 11.8 -10.0°
